Whitecourt Airport
CYZU : now visible

Airfield :











YOU CAN JOIN US ON...

 
LOGIN :

Register | Disclaimer

   EN    FR    IT 

 









Legend :    VFR   Marginal VFR   IFR   Intensive IFR   Very Intensive IFR
Visi :
Ceiling :
>= 8 km
>= 3000ft
5 to 8 km
1000 to 3000 ft
1500m to 5 km
500 to 1000 ft
800 to 1500m
200 to 500 ft
< 800m
< 200 ft
Symbols :   Thunderstorms  Fog  Heavy snow  Heavy precipitations  Wind > 20 kt






- Airport Elevation : 2567 ft
- IATA code : YZU


CYZU - Whitecourt

CURRENT METAR :
  • 231800Z 29009KT 240V360 15SM BKN041 BKN230 17/07 A2990 RMK CU5CI1 SLP128 DENSITY ALT 3400FT

EXPIRED METARs :
  • 231700Z 31011KT 290V020 15SM BKN036 BKN230 15/07 A2990 RMK CU5CI1 SLP129 DENSITY ALT 3300FT
  • 231600Z 28010G17KT 270V330 15SM BKN032 BKN230 16/08 A2990 RMK CU5CI1 SLP125 DENSITY ALT 3400FT

TAF TAF CYZU
Valid from the 23 at 19:00 until the 23 at 23:00 UTC


231838Z 2319/2323 30010KT P6SM SCT040 BKN220
TEMPO 2319/2323 BKN040 OVC220 RMK NXT FCST WILL BE ISSUED AT 241415Z
CZEG FIR / North America



MET'MAP, your aeronautical weather chart ! - Copyright ORBIFLY December 2007 - Disclaimer

ORBIFLY MET'MAP TEAM :

Programming & Development : Alexandra Zaïnal
Concept & original design : Baudouin d'Aumeries
Assistance for programming : Marc-Olivier Méhu
Technical & hardware support : Manuel Goepfert

Contact : metmap@orbifly.com




SOURCES & CREDITS :

   NOAA       Earth
Advisory